ACA543 CYXU-KSEA

Flight info

Callsign ACA543
Flight time N/A
Altitude 38000
Route DCT KITOK DCT HOCKE DCT GRB DCT AXN DCT BIS/N0480F400 DCT DIK J36 HILGR J203 GTF J36 MLP J136 GEG DCT TEMPL GLASR3
Aircraft B77L/H-V/N

Departure

Time 2026-04-26 21:57
Airport London International Airport (CYXU)

Arrival

Time N/A
Airport Seattle–Tacoma International Airport (KSEA)
Time Latitude Longitude Altitude Speed Heading
2026-04-26 21:15 43.02977 -81.14922 906 ft 0 kts 219°
2026-04-26 21:33 43.02983 -81.14915 907 ft 0 kts 201°
2026-04-26 21:33 43.02985 -81.14914 908 ft 0 kts 195°
2026-04-26 21:34 43.03001 -81.14902 913 ft 3 kts 237°
2026-04-26 21:34 43.03008 -81.14876 911 ft 3 kts 283°
2026-04-26 21:34 43.03001 -81.14856 907 ft 0 kts 310°
2026-04-26 21:47 43.03010 -81.14869 905 ft 5 kts 310°
2026-04-26 21:47 43.03015 -81.14874 908 ft 2 kts 323°
2026-04-26 21:47 43.03033 -81.14893 906 ft 5 kts 323°
2026-04-26 21:48 43.03067 -81.14928 906 ft 7 kts 322°
2026-04-26 21:48 43.03115 -81.14984 907 ft 11 kts 317°
2026-04-26 21:48 43.03181 -81.15067 907 ft 15 kts 319°
2026-04-26 21:48 43.03264 -81.15165 910 ft 17 kts 319°
2026-04-26 21:49 43.03324 -81.15236 911 ft 13 kts 319°
2026-04-26 21:49 43.03386 -81.15310 911 ft 9 kts 319°
2026-04-26 21:49 43.03444 -81.15379 911 ft 13 kts 319°
2026-04-26 21:49 43.03524 -81.15474 909 ft 18 kts 318°
2026-04-26 21:50 43.03629 -81.15605 909 ft 22 kts 317°
2026-04-26 21:50 43.03721 -81.15719 908 ft 18 kts 317°
2026-04-26 21:50 43.03818 -81.15831 909 ft 14 kts 319°
2026-04-26 21:50 43.03898 -81.15927 911 ft 17 kts 320°
2026-04-26 21:51 43.03976 -81.16007 913 ft 11 kts 338°
2026-04-26 21:51 43.04034 -81.16015 916 ft 0 kts
2026-04-26 21:54 43.04035 -81.16014 916 ft 1 kts
2026-04-26 21:54 43.04045 -81.16013 916 ft 2 kts
2026-04-26 21:55 43.04069 -81.16009 917 ft 4 kts
2026-04-26 21:55 43.04105 -81.15995 918 ft 7 kts 27°
2026-04-26 21:55 43.04136 -81.15934 923 ft 10 kts 77°
2026-04-26 21:55 43.04122 -81.15880 916 ft 0 kts 133°
2026-04-26 21:56 43.04114 -81.15870 916 ft 0 kts 136°
2026-04-26 21:56 43.04113 -81.15868 916 ft 3 kts 136°
2026-04-26 21:56 43.03884 -81.15588 909 ft 102 kts 139°
2026-04-26 21:57 43.03072 -81.14616 1220 ft 189 kts 135°
2026-04-26 21:57 43.02055 -81.13373 2508 ft 203 kts 134°
2026-04-26 21:57 43.00974 -81.12017 3584 ft 217 kts 135°
2026-04-26 21:57 42.99813 -81.10573 4370 ft 232 kts 136°
2026-04-26 21:58 42.98602 -81.09089 5370 ft 240 kts 136°
2026-04-26 21:58 42.97326 -81.07503 6165 ft 255 kts 135°
2026-04-26 21:58 42.96020 -81.05816 6945 ft 270 kts 135°
2026-04-26 21:58 42.94594 -81.04050 7799 ft 282 kts 138°
2026-04-26 21:59 42.93074 -81.02243 8629 ft 295 kts 138°
2026-04-26 21:59 42.91495 -81.00443 9742 ft 298 kts 141°
2026-04-26 21:59 42.89850 -80.98640 10609 ft 309 kts 141°
2026-04-26 21:59 42.88145 -80.96772 11440 ft 320 kts 141°
2026-04-26 22:00 42.86402 -80.94836 12387 ft 325 kts 141°
2026-04-26 22:00 42.84469 -80.93260 13185 ft 329 kts 165°
2026-04-26 22:00 42.82144 -80.92976 13629 ft 350 kts 191°
2026-04-26 22:00 42.79812 -80.94175 13898 ft 372 kts 216°
2026-04-26 22:01 42.77904 -80.96518 14632 ft 378 kts 233°
2026-04-26 22:01 42.76530 -80.99564 15561 ft 378 kts 250°
2026-04-26 22:01 42.75984 -81.03027 16620 ft 374 kts 271°
2026-04-26 22:01 42.76427 -81.06485 17710 ft 373 kts 289°
2026-04-26 22:02 42.77392 -81.09767 18676 ft 376 kts 294°
2026-04-26 22:02 42.78494 -81.13017 19456 ft 381 kts 295°
2026-04-26 22:02 42.79643 -81.16304 20243 ft 387 kts 295°
2026-04-26 22:02 42.80795 -81.19634 21038 ft 391 kts 295°
2026-04-26 22:03 42.81924 -81.22966 21825 ft 395 kts 295°
2026-04-26 22:03 42.83078 -81.26440 22623 ft 400 kts 294°
2026-04-26 22:03 42.84204 -81.29881 23364 ft 405 kts 294°
2026-04-26 22:03 42.85351 -81.33423 24053 ft 411 kts 294°
2026-04-26 22:04 42.86504 -81.37005 24691 ft 415 kts 294°
2026-04-26 22:04 42.87665 -81.40623 25383 ft 418 kts 294°
2026-04-26 22:04 42.88832 -81.44268 26033 ft 421 kts 294°
2026-04-26 22:04 42.90009 -81.47946 26679 ft 425 kts 294°
2026-04-26 22:05 42.91196 -81.51663 27288 ft 429 kts 294°
2026-04-26 22:05 42.92393 -81.55414 27948 ft 432 kts 294°
2026-04-26 22:05 42.93595 -81.59186 28573 ft 436 kts 294°
2026-04-26 22:05 42.94794 -81.62953 29153 ft 440 kts 294°
2026-04-26 22:06 42.96016 -81.66797 29700 ft 444 kts 293°
2026-04-26 22:06 42.97248 -81.70682 30265 ft 447 kts 293°
2026-04-26 22:06 42.98487 -81.74590 30734 ft 450 kts 294°
2026-04-26 22:06 42.99729 -81.78515 31202 ft 451 kts 294°
2026-04-26 22:07 43.00966 -81.82434 31862 ft 447 kts 294°
2026-04-26 22:07 43.02192 -81.86320 32607 ft 442 kts 294°
2026-04-26 22:07 43.03400 -81.90154 33343 ft 437 kts 294°
2026-04-26 22:07 43.04593 -81.93964 34003 ft 434 kts 294°
2026-04-26 22:08 43.05702 -81.97728 34515 ft 433 kts 292°
2026-04-26 22:08 43.06745 -82.01418 34886 ft 433 kts 292°
2026-04-26 22:08 43.07820 -82.05276 35259 ft 434 kts 292°
2026-04-26 22:08 43.08894 -82.09134 35664 ft 434 kts 292°
2026-04-26 22:09 43.09971 -82.12990 36087 ft 434 kts 292°
2026-04-26 22:09 43.11053 -82.16845 36479 ft 433 kts 292°
2026-04-26 22:09 43.12135 -82.20692 36855 ft 433 kts 292°
2026-04-26 22:09 43.13218 -82.24538 37237 ft 433 kts 292°
2026-04-26 22:10 43.14297 -82.28377 37630 ft 432 kts 292°
2026-04-26 22:10 43.15377 -82.32219 37998 ft 432 kts 292°
2026-04-26 22:10 43.16242 -82.35303 38152 ft 435 kts 292°
2026-04-26 22:11 43.16944 -82.37805 38174 ft 438 kts 292°
2026-04-26 22:11 43.19120 -82.45590 38217 ft 435 kts 292°
2026-04-26 22:12 43.21271 -82.53315 38225 ft 432 kts 292°
2026-04-26 22:12 43.23400 -82.60982 38220 ft 429 kts 292°
2026-04-26 22:13 43.25515 -82.68617 38220 ft 428 kts 292°
2026-04-26 22:13 43.27582 -82.76212 38212 ft 428 kts 291°
2026-04-26 22:14 43.29602 -82.83886 38210 ft 428 kts 291°
2026-04-26 22:14 43.31614 -82.91571 38203 ft 428 kts 291°
2026-04-26 22:15 43.33631 -82.99272 38207 ft 429 kts 291°
2026-04-26 22:15 43.35622 -83.06887 38196 ft 430 kts 291°
2026-04-26 22:16 43.37640 -83.14622 38198 ft 430 kts 291°
2026-04-26 22:16 43.39640 -83.22313 38195 ft 430 kts 291°
2026-04-26 22:17 43.41649 -83.30064 38193 ft 430 kts 291°
2026-04-26 22:17 43.43648 -83.37806 38191 ft 429 kts 290°
2026-04-26 22:18 43.45643 -83.45552 38199 ft 429 kts 290°
2026-04-26 22:18 43.47630 -83.53295 38194 ft 429 kts 290°
2026-04-26 22:19 43.49608 -83.61027 38191 ft 427 kts 290°
2026-04-26 22:19 43.51561 -83.68689 38178 ft 426 kts 290°
2026-04-26 22:20 43.53202 -83.75147 38176 ft 426 kts 290°
2026-04-26 22:20 43.55469 -83.84096 38178 ft 425 kts 290°
2026-04-26 22:21 43.57412 -83.91793 38188 ft 425 kts 290°
2026-04-26 22:21 43.59350 -83.99492 38194 ft 425 kts 290°
2026-04-26 22:22 43.61240 -84.07030 38187 ft 424 kts 290°
2026-04-26 22:22 43.63151 -84.14674 38185 ft 424 kts 290°
2026-04-26 22:23 43.65070 -84.22380 38186 ft 424 kts 290°
2026-04-26 22:23 43.66985 -84.30088 38181 ft 424 kts 289°
2026-04-26 22:24 43.68892 -84.37796 38182 ft 424 kts 289°
2026-04-26 22:24 43.70794 -84.45509 38185 ft 424 kts 289°
2026-04-26 22:25 43.72678 -84.53174 38174 ft 424 kts 289°
2026-04-26 22:25 43.74570 -84.60893 38171 ft 424 kts 289°
2026-04-26 22:26 43.76455 -84.68616 38167 ft 424 kts 289°
2026-04-26 22:26 43.78335 -84.76338 38170 ft 423 kts 289°
2026-04-26 22:27 43.80205 -84.84053 38172 ft 423 kts 289°
2026-04-26 22:27 43.82060 -84.91728 38174 ft 423 kts 289°
2026-04-26 22:28 43.83920 -84.99449 38173 ft 423 kts 289°
2026-04-26 22:28 43.85738 -85.07019 38173 ft 423 kts 288°
2026-04-26 22:29 43.87585 -85.14743 38166 ft 422 kts 288°
2026-04-26 22:29 43.89416 -85.22423 38172 ft 422 kts 288°
2026-04-26 22:30 43.91254 -85.30160 38163 ft 422 kts 288°
2026-04-26 22:30 43.93085 -85.37892 38155 ft 422 kts 288°
2026-04-26 22:31 43.94903 -85.45595 38158 ft 422 kts 287°
2026-04-26 22:31 43.96726 -85.53347 38150 ft 423 kts 287°
2026-04-26 22:32 43.98545 -85.61110 38149 ft 422 kts 287°
2026-04-26 22:32 44.00355 -85.68864 38150 ft 423 kts 287°
2026-04-26 22:33 44.03052 -85.80463 38145 ft 423 kts 287°
2026-04-26 22:34 44.04851 -85.88235 38145 ft 422 kts 287°
2026-04-26 22:34 44.06644 -85.96010 38146 ft 422 kts 287°
2026-04-26 22:35 44.08409 -86.03687 38149 ft 422 kts 287°
2026-04-26 22:35 44.10179 -86.11418 38147 ft 422 kts 287°
2026-04-26 22:36 44.11957 -86.19205 38144 ft 422 kts 287°
2026-04-26 22:36 44.13728 -86.26996 38133 ft 422 kts 287°
2026-04-26 22:37 44.15493 -86.34787 38133 ft 422 kts 287°
2026-04-26 22:37 44.17253 -86.42583 38154 ft 422 kts 287°
2026-04-26 22:38 44.18997 -86.50333 38131 ft 422 kts 287°
2026-04-26 22:38 44.20746 -86.58135 38137 ft 422 kts 286°
2026-04-26 22:39 44.22492 -86.65955 38154 ft 422 kts 286°
2026-04-26 22:39 44.24229 -86.73760 38171 ft 421 kts 286°
2026-04-26 22:40 44.25960 -86.81569 38173 ft 421 kts 286°
2026-04-26 22:40 44.27688 -86.89392 38170 ft 421 kts 286°
2026-04-26 22:41 44.29397 -86.97160 38154 ft 421 kts 285°
2026-04-26 22:41 44.31081 -87.04839 38157 ft 421 kts 285°
2026-04-26 22:42 44.32791 -87.12665 38150 ft 421 kts 285°
2026-04-26 22:42 44.34492 -87.20482 38157 ft 420 kts 285°
2026-04-26 22:43 44.36179 -87.28258 38169 ft 420 kts 285°
2026-04-26 22:43 44.37872 -87.36096 38168 ft 420 kts 285°
2026-04-26 22:44 44.39553 -87.43907 38166 ft 420 kts 285°
2026-04-26 22:44 44.39838 -87.45234 38162 ft 420 kts 285°